Weather History for Grafton, ND

Change the Weather History Date:

Tuesday, March 6, 2012

  Actual Average Record
Temperature  
Mean Temperature 23 °F -  
Max Temperature 32 °F 31 °F 54 °F (1988)
Min Temperature 14 °F 10 °F -25 °F (1955)
Degree Days  
Heating Degree Days 42    
Moisture  
Dew Point 23 °F    
Average Humidity 95    
Maximum Humidity 100    
Minimum Humidity 80    
Precipitation  
Precipitation 0.00 in - - ()
Sea Level Pressure  
Sea Level Pressure 29.51 in    
Wind  
Wind Speed 7 mph (SE)    
Max Wind Speed 15 mph    
Max Gust Speed 23 mph    
Visibility 4 miles    
Events Fog    
Averages and records for this station are not official NWS values.
T = Trace of Precipitation, MM = Missing Value Source: NWS Daily Summary

Daily Weather History Graph

Daily Weather History Graph

Search for Another Location

Airport:

Trip Planner

Search our weather history database for the weather conditions in past years. The results will help you decide how hot, cold, wet, or windy it might be!

Date:

Astronomy

Mar. 06, 2012 Rise Set
Actual Time 6:59 AM CST 6:22 PM CST
Civil Twilight 6:28 AM CST 6:53 PM CST
Nautical Twilight 5:52 AM CST 7:29 PM CST
Astronomical Twilight 5:16 AM CST 8:06 PM CST
Moon 4:46 PM CST (3/6) 5:42 AM CST (3/6)
Length of Visible Light 12h 24m
Length of Day
11h 22m
Waxing Gibbous, 96% of the Moon is Illuminated
Mar 6
Waxing Gibbous
Mar 8
Full
Mar 14
Last Quarter
Mar 22
New
Mar 30
First Quarter

Hourly Weather History & Observations

Time (CST) Temp. Windchill Dew Point Humidity Pressure Visibility Wind Dir Wind Speed Gust Speed Precip Events Conditions
12:15 AM 15.8 °F 7.2 °F 15.8 °F 100% 29.62 in 0.2 mi ESE 5.8 mph - N/A Fog Light Freezing Fog
12:35 AM 15.8 °F 8.6 °F 15.8 °F 100% 29.62 in 0.2 mi SE 4.6 mph - N/A Fog Light Freezing Fog
12:55 AM 15.8 °F 10.2 °F 15.8 °F 100% 29.61 in 0.2 mi ESE 3.5 mph - N/A Fog Light Freezing Fog
1:15 AM 17.6 °F 12.3 °F 15.8 °F 93% 29.61 in 1.0 mi ESE 3.5 mph - N/A   Overcast
1:35 AM 15.8 °F - 15.8 °F 100% 29.62 in 1.2 mi Calm Calm - N/A   Scattered Clouds
1:55 AM 15.8 °F 8.6 °F 15.8 °F 100% 29.60 in 0.2 mi SE 4.6 mph - N/A Fog Light Freezing Fog
2:15 AM 15.8 °F - 14.0 °F 93% 29.60 in 0.2 mi Calm Calm - N/A Fog Light Freezing Fog
2:35 AM 15.8 °F 10.2 °F 15.8 °F 100% 29.58 in 0.2 mi ENE 3.5 mph - N/A Fog Light Freezing Fog
2:55 AM 15.8 °F 8.6 °F 14.0 °F 93% 29.57 in 0.2 mi East 4.6 mph - N/A Fog Light Freezing Fog
3:15 AM 14.0 °F 3.9 °F 14.0 °F 100% 29.57 in 0.2 mi ESE 6.9 mph - N/A Fog Light Freezing Fog
3:35 AM 14.0 °F 2.0 °F 14.0 °F 100% 29.55 in 0.2 mi SE 9.2 mph - N/A Fog Light Freezing Fog
3:55 AM 15.8 °F 4.2 °F 14.0 °F 93% 29.54 in 0.2 mi SE 9.2 mph - N/A Fog Light Freezing Fog
4:15 AM 17.6 °F 10.7 °F 15.8 °F 93% 29.53 in 0.2 mi SE 4.6 mph - N/A Fog Light Freezing Fog
4:35 AM 17.6 °F 6.4 °F 15.8 °F 93% 29.52 in 0.2 mi SE 9.2 mph - N/A Fog Light Freezing Fog
4:55 AM 19.4 °F 7.9 °F 19.4 °F 100% 29.51 in 3.0 mi SSE 10.4 mph - N/A   Partly Cloudy
5:15 AM 19.4 °F 7.9 °F 19.4 °F 100% 29.50 in 3.0 mi SSE 10.4 mph - N/A   Clear
5:35 AM 19.4 °F 7.2 °F 19.4 °F 100% 29.49 in 3.0 mi SSE 11.5 mph - N/A   Partly Cloudy
5:55 AM 19.4 °F 10.4 °F 19.4 °F 100% 29.49 in 3.0 mi SE 6.9 mph - N/A   Mostly Cloudy
6:55 AM 21.2 °F 9.5 °F 21.2 °F 100% 29.49 in 3.0 mi SSE 11.5 mph - N/A   Scattered Clouds
7:15 AM 19.4 °F 9.5 °F 19.4 °F 100% 29.48 in 2.5 mi SE 8.1 mph - N/A   Clear
7:35 AM 17.6 °F 8.2 °F 17.6 °F 100% 29.47 in 2.5 mi SSE 6.9 mph - N/A   Clear
7:55 AM 19.4 °F 6.6 °F 19.4 °F 100% 29.46 in 2.0 mi SE 12.7 mph - N/A   Clear
8:15 AM 23.0 °F 10.6 °F 21.2 °F 93% 29.44 in 2.5 mi SSE 13.8 mph - N/A   Partly Cloudy
8:35 AM 24.8 °F 14.6 °F 24.8 °F 100% 29.45 in 4.0 mi SSE 10.4 mph - N/A   Mostly Cloudy
8:55 AM 24.8 °F 19.1 °F 24.8 °F 100% 29.47 in 5.0 mi SW 4.6 mph - N/A   Partly Cloudy
9:15 AM 24.8 °F 16.9 °F 24.8 °F 100% 29.45 in 5.0 mi South 6.9 mph - N/A   Clear
9:35 AM 26.6 °F 17.5 °F 26.6 °F 100% 29.45 in 5.0 mi SSE 9.2 mph - N/A   Clear
9:55 AM 26.6 °F 17.5 °F 26.6 °F 100% 29.45 in 6.0 mi SSE 9.2 mph - N/A   Clear
10:15 AM 26.6 °F 18.2 °F 26.6 °F 100% 29.45 in 7.0 mi SSE 8.1 mph - N/A   Clear
10:35 AM 26.6 °F 18.2 °F 26.6 °F 100% 29.44 in 8.0 mi SSE 8.1 mph - N/A   Clear
10:55 AM 28.4 °F 19.1 °F 28.4 °F 100% 29.44 in 9.0 mi South 10.4 mph 16.1 mph N/A   Clear
11:15 AM 30.2 °F 21.3 °F 30.2 °F 100% 29.44 in 9.0 mi South 10.4 mph - N/A   Clear
11:35 AM 30.2 °F 21.9 °F 30.2 °F 100% 29.44 in 8.0 mi South 9.2 mph - N/A   Clear
11:55 AM 32.0 °F 24.2 °F 28.4 °F 87% 29.44 in 9.0 mi South 9.2 mph - N/A   Clear
12:15 PM 32.0 °F 24.8 °F 28.4 °F 87% 29.44 in 9.0 mi South 8.1 mph - N/A   Clear
12:55 PM 32.0 °F 27.5 °F 28.4 °F 87% 29.44 in 9.0 mi South 4.6 mph - N/A   Clear
1:35 PM 32.0 °F - 28.4 °F 87% 29.44 in 10.0 mi Calm Calm - N/A   Partly Cloudy
1:55 PM 32.0 °F 23.6 °F 26.6 °F 80% 29.45 in 8.0 mi NNW 10.4 mph - N/A   Clear
2:15 PM 32.0 °F 24.2 °F 26.6 °F 80% 29.46 in 6.0 mi NNW 9.2 mph - N/A   Scattered Clouds
2:35 PM 32.0 °F 23.6 °F 26.6 °F 80% 29.46 in 6.0 mi NNW 10.4 mph - N/A   Mostly Cloudy
2:55 PM 30.2 °F 21.9 °F 26.6 °F 86% 29.46 in 6.0 mi North 9.2 mph - N/A   Clear
3:15 PM 30.2 °F 21.3 °F 26.6 °F 86% 29.46 in 5.0 mi North 10.4 mph - N/A   Clear
3:35 PM 28.4 °F 19.1 °F 26.6 °F 93% 29.46 in 5.0 mi North 10.4 mph - N/A   Mostly Cloudy
3:55 PM 28.4 °F 18.0 °F 26.6 °F 93% 29.47 in 5.0 mi North 12.7 mph - N/A   Overcast
4:15 PM 28.4 °F 18.5 °F 28.4 °F 100% 29.48 in 4.0 mi North 11.5 mph - N/A   Overcast
4:35 PM 30.2 °F 20.8 °F 28.4 °F 93% 29.48 in 4.0 mi North 11.5 mph - N/A   Overcast
4:55 PM 30.2 °F 23.4 °F 28.4 °F 93% 29.51 in 4.0 mi North 6.9 mph - N/A   Overcast
5:15 PM 30.2 °F 22.6 °F 28.4 °F 93% 29.51 in 4.0 mi North 8.1 mph - N/A   Overcast
5:35 PM 32.0 °F 24.2 °F 28.4 °F 87% 29.52 in 4.0 mi NNW 9.2 mph - N/A   Overcast
5:55 PM 32.0 °F 23.6 °F 28.4 °F 87% 29.53 in 5.0 mi NNW 10.4 mph - N/A   Overcast
6:55 PM 32.0 °F 22.5 °F 28.4 °F 87% 29.53 in 5.0 mi NNW 12.7 mph - N/A   Overcast
7:35 PM 32.0 °F 21.6 °F 28.4 °F 87% 29.57 in 5.0 mi NW 15.0 mph - N/A   Mostly Cloudy
8:15 PM 30.2 °F 20.8 °F 28.4 °F 93% 29.60 in 4.0 mi NNW 11.5 mph - N/A   Overcast
8:35 PM 30.2 °F 19.8 °F 28.4 °F 93% 29.61 in 4.0 mi NNW 13.8 mph - N/A   Overcast
9:15 PM 30.2 °F 19.8 °F 28.4 °F 93% 29.63 in 4.0 mi NNW 13.8 mph 23.0 mph N/A   Overcast
9:35 PM 30.2 °F 20.2 °F 28.4 °F 93% 29.64 in 4.0 mi NNW 12.7 mph - N/A   Overcast
9:55 PM 30.2 °F 20.2 °F 28.4 °F 93% 29.62 in 5.0 mi North 12.7 mph - N/A   Overcast
10:15 PM 30.2 °F 20.8 °F 28.4 °F 93% 29.63 in 4.0 mi NNW 11.5 mph - N/A   Overcast
10:55 PM 28.4 °F 18.0 °F 28.4 °F 100% 29.66 in 6.0 mi NW 12.7 mph 17.3 mph N/A   Overcast
11:15 PM 28.4 °F 17.0 °F 26.6 °F 93% 29.67 in 7.0 mi NW 15.0 mph - N/A   Overcast
11:35 PM 28.4 °F 16.2 °F 26.6 °F 93% 29.68 in 7.0 mi NW 17.3 mph - N/A   Overcast
11:55 PM 28.4 °F 16.2 °F 26.6 °F 93% 29.68 in 8.0 mi NW 17.3 mph - N/A   Overcast